User: anonymous   Login
Location: Unspecified
(0.0000°N, 0.0000°E)
Time: 10:39:41
(UTC+00:00)
Language:

OPAL - Orbit

View from above orbital plane
View from above orbital plane
View from above satellite
View from above satellite

Ground track
Ground track

The orbit data is extracted from the following two-line orbital elements,

1 26063U 00004C   18198.85936411 -.00000009 +00000-0 +16916-4 0  9992
2 26063 100.1907 280.4051 0035762 273.1109 086.5980 14.36702324967991
Epoch (UTC): 17 July 2018 20:37:29
Eccentricity: 0.0035762
inclination: 100.1907°
perigee height: 744 km
apogee height: 795 km
right ascension of ascending node: 280.4051°
argument of perigee: 273.1109°
revolutions per day: 14.36702324
mean anomaly at epoch: 86.5980°
orbit number at epoch: 96799

The dashed part of the orbit path shows where the satellite is in the earth's shadow,  

DLR